SL-14 DEB, 45298

Orbit data source: Space-Track

SL-14 DEB, 45298 is space debris in LEO originally from a launch on Thu, 15 Aug 1991 UTC launched from the Plesetsk Missile And Space Complex (PKMTR). Debris objects in space refer to the collection of defunct objects orbiting the Earth. Examples of debris include non-operational satellites, rocket bodies, and fragments generated from explosions, collisions, or faulty payload assembly.

Loading next visibility...
Identifier
45298, 1991-056AL
Orbit
LEO
Last TLE update
12 hours ago
Origin
Manufacturer
Unknown
Mission
Spacecraft
Bus & Motor
Unknown
Mass
Unknown
Launch date (UTC)
1991-08-15 (34 years ago)
Launch vehicle
Unknown
Launch site
Plesetsk Missile And Space Complex (PKMTR)
Object type
Payload
Rocket body
Debris
Shape & HBR
Unknown
Radar Cross Section
Medium (>0.1 m² and <1 m²)

Expand to show TLE details & history

TLE from 12 hours ago
0 SL-14 DEB
1 45298U 91056AL  25181.76163249  .00002361  00000-0  27626-2 0  9991
2 45298  82.5884 303.4222 0152730 275.8254  82.5501 13.63254938264009
Epoch: 2025-06-30T18:16Z
TLE epoch observation values (Epoch: 2025-06-30T18:16:45.047Z)
Latitude
-0.00007°
Longitude
110.1677°
Altitude
1,013.803 km
Speed
7.351 km/s
True Right ascension
20h 13m 41s
True Declination
0° 00' 00"
Sunlit
Object was in full shadow at epoch
Visualization orbit readout
Latitude
-36.1954°
Longitude
104.34783°
Altitude
962.77 km
Speed
7.406 km/s
Apparent Right ascension
23h 29m 28s
Apparent Declination
-72° 12' 40"
Sunlit
Object is in full shadow
Visualization observer readout
Local Sidereal Time
18:03:47
Azimuth
158.311° S
Elevation
-35.172°
Doppler factor
1
Orbital elements
Apogee altitude
1,134.072 km
Perigee altitude
908.056 km
Semi-major axis
7,399.201 km
Eccentricity
0.01527
Inclination
82.5884°
RAAN
303.4222°
Arg. of periapsis
275.8254°
True anomaly
Unknown
Mean anomaly
82.5501°
Eccentric anomaly
Unknown
Mean motion
3.41009 °/min
Orbital period
105.57 mins
BSTAR
0.0027626
Loading maneuver chart data...
Loading SW <> Apogee altitude chart data...
Loading historical data...
Loading historical data...
Loading historical data...
Loading historical data...
Loading historical data...
Loading historical data...
Loading historical data...

SL-14 DEB Visibility forecast

Observer location: undefined°, undefined°

Span
Click to sort rows by Start time (UTC) header in descending order
Start Az.
Max El. time (UTC)
Max El. Az.
Max El.
End time (UTC)
End Az.
12 mins2025-07-01 08:28:00.149Z169.126° S2025-07-01 08:34:00.149Z94.025° ESE40.941°2025-07-01 08:40:00.149Z16.308° NNE
9 mins2025-07-01 10:17:00.149Z248.522° W2025-07-01 10:21:00.149Z291.058° WNW21.389°2025-07-01 10:26:00.149Z339.743° N
11 mins2025-07-01 19:33:00.149Z5.259° NNE2025-07-01 19:38:00.149Z79.165° E40.231°2025-07-01 19:44:00.149Z155.932° SSE
8 mins2025-07-01 21:20:00.149Z317.538° NNW2025-07-01 21:24:00.149Z275.427° WNW21.652°2025-07-01 21:28:00.149Z233.874° WSW
|